Regional Weather Roundup
Issued by NWS

Home | Current Version | Previous Version | Text Only | Print | Product List | Glossary Off
Versions: 1 2 3 4 5 6 7 8 9 10 11 12 13 14 15 16 17 18 19 20 21 22 23 24 25 26 27 28 29 30 31 32 33 34 35 36 37 38 39 40 41 42 43 44 45 46 47 48 49 50

000
ASUS43 KLMK 270002
RWRKY
KENTUCKY REGIONAL WEATHER ROUNDUP
NATIONAL WEATHER SERVICE LOUISVILLE KY
800 PM EDT FRI AUG 26 2016

NOTE "FAIR" INDICATES FEW OR NO CLOUDS BELOW 12,000 FEET
WITH NO SIGNIFICANT WEATHER AND/OR OBSTRUCTIONS TO VISIBILITY.

KYZ001>023-026-027-061>063-070>075-270100-
WESTERN AND SOUTH CENTRAL KENTUCKY

CITY           SKY/WX    TMP DP  RH WIND       PRES   REMARKS
PADUCAH        LGT RAIN  77  73  87 SW9       30.07R
HENDERSON      CLOUDY    81  72  74 W3        30.04R
OWENSBORO      CLOUDY    87  78  74 VRB3      30.04F HX  99
HOPKINSVILLE   PTCLDY    85  77  76 N2        30.05R HX  96
BOWLING GREEN  CLEAR     86  74  67 NE5       30.04F HX  94
GLASGOW        CLOUDY    84  73  67 NE3       30.07R HX  90
$$

KYZ024-025-028>034-038-045-046-053-270100-
NORTH CENTRAL KENTUCKY

CITY           SKY/WX    TMP DP  RH WIND       PRES   REMARKS
LOUISVILLE/SDF MOCLDY    89  66  46 SE6       30.06R HX  91
LOUISVILLE/LOU CLEAR     89  67  47 SE5       30.07R HX  92
FORT KNOX      CLEAR     86  72  64 E3        30.07R HX  92
$$

KYZ035>037-039>044-047>052-055>060-089>105-270100-
NORTHEAST KENTUCKY

CITY           SKY/WX    TMP DP  RH WIND       PRES   REMARKS
LEXINGTON      PTCLDY    86  70  58 S5        30.11R HX  90
COVINGTON      MOCLDY    84  74  71 N10       30.10R THUNDER HX  91
FRANKFORT      CLEAR     85  72  65 CALM      30.08R HX  91
$$

KYZ054-064>069-076>088-106>120-270100-
SOUTHEAST KENTUCKY

CITY           SKY/WX    TMP DP  RH WIND       PRES   REMARKS
JACKSON        CLEAR     83  69  62 CALM      30.13R
LONDON         CLEAR     83  68  60 NE5       30.11R
SOMERSET       CLEAR     82  68  61 E3        30.10R
MIDDLESBORO    CLEAR     82  75  79 CALM      30.10R
MONTICELLO     CLEAR    N/A N/A N/A NE15      30.10R
$$




USA.gov is the U.S. government's official web portal to all federal, state and local government web resources and services.